Wind_Speed
61 60 59 58 58 56 53 52 51 52 52 52 51 51 50 50 50 49 48 47 47 46 46 46 46 47 48 48 48 48 48 48 48 48 48 48 48 47 47 46 46 47
65 62 61 60 59 59 57 54 53 53 53 53 52 52 52 51 50 49 49 48 47 47 48 48 48 48 49 50 50 50 49 49 50 50 50 50 50 49 48 48 48 48
68 65 63 61 60 61 61 60 59 56 54 54 54 53 52 52 50 50 49 49 48 48 48 49 50 51 51 51 52 51 51 51 51 51 52 53 52 52 51 51 51 51
70 68 66 65 63 63 64 64 64 61 57 55 55 54 53 52 51 50 49 49 49 49 49 49 50 52 52 53 53 53 52 52 53 53 53 54 54 54 54 54 54 54
72 72 70 68 66 66 66 66 65 63 60 57 56 55 54 53 51 50 49 50 49 50 50 51 51 52 53 54 53 53 54 54 55 55 56 56 56 57 57 57 57 57
73 75 74 72 71 70 70 69 66 64 60 58 56 55 54 53 52 51 51 51 51 52 52 53 53 54 55 55 55 55 55 57 58 58 59 59 59 59 59 59 59 59
72 75 76 76 75 74 72 70 67 64 60 57 56 56 55 54 53 53 53 54 54 54 54 55 55 56 57 58 58 58 57 58 60 61 61 61 61 61 61 62 62 62
71 71 74 79 79 74 72 70 67 64 60 58 58 57 57 57 56 56 56 56 56 56 56 57 58 59 60 61 61 60 60 60 61 63 64 63 63 63 63 64 64 64
70 71 75 80 77 72 71 69 66 64 62 61 60 59 59 59 58 58 58 58 57 57 58 59 61 62 63 64 64 64 63 62 63 64 65 65 65 65 65 65 64 64
73 76 78 76 71 70 71 69 67 66 64 62 61 61 61 60 60 60 60 60 60 60 61 62 63 64 65 65 66 66 66 65 66 65 66 66 67 66 66 66 65 65
76 77 74 67 62 62 64 64 65 66 65 63 62 61 60 60 59 59 59 59 59 59 61 62 64 65 65 65 66 68 68 69 68 67 67 67 67 67 67 67 66 65
74 73 71 67 64 63 65 66 66 63 62 60 58 56 56 56 56 56 57 57 57 58 60 60 62 62 63 64 66 69 71 71 71 69 68 67 67 67 67 67 67 67
78 78 77 75 74 74 75 76 72 66 62 61 60 61 60 60 59 59 60 60 62 63 64 64 64 64 65 67 69 72 74 74 73 72 70 69 68 68 68 68 68 68
83 84 83 80 78 77 77 76 74 69 65 66 68 69 69 68 66 65 65 65 66 67 67 67 68 69 70 72 73 74 76 77 76 76 74 71 69 69 68 68 67 67
89 88 86 83 79 76 74 73 72 69 67 68 70 70 70 70 70 69 69 68 68 68 68 69 71 71 72 74 74 75 76 77 77 77 76 73 71 69 68 68 67 67
89 87 85 83 80 76 73 71 70 69 68 68 69 71 71 72 73 72 71 70 69 69 70 72 73 74 74 74 75 75 76 77 77 77 77 76 74 72 71 70 69 69
82 81 79 78 78 76 74 71 69 69 68 68 69 71 73 74 75 75 74 73 72 72 72 73 74 75 75 75 75 75 76 77 78 78 78 77 75 74 73 72 70 69
76 75 74 73 73 73 73 72 71 70 69 69 70 71 73 74 75 75 76 76 75 75 74 74 75 76 76 75 75 74 75 77 79 80 79 77 75 74 72 71 70 68
71 71 71 70 70 71 72 73 72 72 71 71 70 71 72 73 75 76 77 78 79 78 77 77 78 77 76 76 75 74 74 75 77 78 77 76 74 71 69 68 66 64
68 69 70 70 69 70 70 71 72 72 71 71 71 71 71 73 76 78 78 79 80 79 80 81 79 77 77 77 76 74 73 74 74 75 73 71 69 66 64 63 63 63
69 69 70 71 71 71 70 71 72 73 74 74 73 72 72 72 74 75 76 77 79 79 81 81 79 78 78 78 77 75 74 74 73 71 68 65 63 63 62 63 64 66
69 69 70 72 73 73 71 71 72 75 77 78 77 75 74 73 72 72 72 73 76 78 79 79 79 79 79 79 78 77 75 74 71 68 65 64 63 64 64 65 65 65
72 71 70 71 73 74 74 73 74 76 79 81 81 78 77 77 76 74 72 72 74 76 77 78 80 80 79 77 77 76 74 72 69 67 66 64 64 64 64 64 63 62
80 77 74 73 73 74 75 76 77 79 81 83 84 81 80 79 80 78 76 75 76 77 78 79 80 80 78 76 75 73 72 71 68 66 65 64 63 63 63 62 60 60
88 86 82 78 75 74 75 76 78 80 82 83 84 84 83 81 80 78 76 75 75 76 76 76 77 77 76 75 73 72 71 69 67 65 64 62 62 62 62 60 59 61
92 91 89 84 80 77 76 76 77 81 83 83 83 85 85 83 82 80 78 77 76 75 75 74 74 74 73 72 71 69 68 65 63 62 62 61 60 60 60 60 61 64
Wind_Direction
276 275 275 275 276 275 272 269 268 266 265 263 262 261 261 260 260 260 262 262 261 260 260 259 258 259 259 261 263 265 266 267 267 268 268 268 269 270 272 274 275 275
275 275 274 274 274 273 272 270 267 265 263 262 261 260 260 260 261 261 262 262 261 260 259 259 259 259 260 262 263 265 266 268 269 270 270 270 271 272 273 274 275 275
273 272 272 272 271 270 270 269 268 266 263 261 260 259 260 260 260 261 262 263 263 262 261 261 261 262 262 263 264 265 267 268 270 271 272 273 274 275 276 276 276 276
271 271 270 270 269 269 268 268 268 266 263 260 259 259 259 259 259 260 261 263 264 264 264 264 263 264 264 265 266 267 268 269 270 271 273 274 275 276 277 277 278 277
269 269 268 267 267 266 266 266 266 264 262 260 258 258 259 259 260 260 261 263 264 265 266 265 265 265 265 266 267 268 269 270 271 272 273 274 275 276 277 278 278 279
268 268 267 266 265 265 264 263 262 261 259 258 258 258 259 260 261 262 263 264 265 265 266 266 266 266 266 267 267 268 270 271 272 273 273 274 275 276 276 277 278 278
266 266 267 266 264 262 261 260 260 259 257 256 257 258 260 261 261 262 263 264 265 266 267 267 268 268 268 268 269 269 270 271 272 273 273 274 274 275 275 275 276 276
265 266 267 265 262 260 259 259 258 258 257 256 256 257 259 260 261 262 263 264 265 267 268 269 270 270 270 270 270 270 270 270 271 272 273 273 273 273 273 273 273 274
266 265 264 262 259 257 258 259 258 257 256 255 256 256 258 260 261 261 262 264 265 268 270 271 272 272 272 271 271 271 271 270 270 270 271 271 271 270 270 270 271 272
263 262 262 263 262 258 257 258 258 256 255 254 255 255 256 258 260 262 263 265 268 270 271 272 272 272 272 272 272 272 271 270 269 269 269 269 269 269 269 270 270 271
263 265 265 267 266 263 262 264 263 260 258 256 255 255 256 258 261 264 267 269 272 273 273 272 272 272 272 273 273 273 272 271 270 269 268 267 267 268 269 269 269 269
265 269 269 269 268 267 269 272 272 271 267 262 261 262 262 263 265 267 269 271 274 275 275 275 273 273 273 273 274 275 274 273 272 270 269 268 268 268 268 268 268 268
269 271 273 273 273 272 272 273 275 275 272 268 268 270 270 270 270 270 271 272 273 275 276 275 274 274 274 274 275 275 276 275 274 272 271 269 268 267 266 266 266 266
271 272 273 275 275 274 274 274 274 274 271 268 269 271 272 272 271 271 271 271 272 273 274 274 274 273 273 274 274 274 274 274 273 272 270 268 267 266 265 265 265 265
272 272 273 274 274 274 274 274 273 272 269 267 267 268 269 269 269 269 268 269 270 271 272 272 272 272 272 272 272 272 271 271 270 270 269 267 265 265 265 264 265 265
272 272 272 273 273 272 272 272 271 270 268 267 266 266 266 267 267 267 266 266 267 267 268 269 270 271 271 271 270 269 269 269 268 268 267 266 266 265 265 265 266 267
269 270 270 270 270 270 269 269 269 268 267 266 265 265 265 265 265 265 265 265 264 264 265 267 269 270 269 267 266 266 266 266 267 267 266 266 266 266 266 267 268 269
266 266 266 266 265 266 267 267 267 267 267 266 265 263 263 263 264 264 264 264 264 263 263 265 267 266 264 263 263 263 263 263 264 266 266 266 266 266 267 267 269 270
261 262 262 261 261 262 264 265 266 266 266 265 264 263 263 263 264 264 263 263 264 264 264 267 266 263 261 261 262 262 262 262 263 264 265 265 265 265 266 268 269 271
259 260 260 259 259 259 260 262 264 265 265 264 263 262 263 264 264 264 264 264 264 264 266 267 265 261 260 261 262 263 263 262 263 263 263 264 265 266 268 270 273 276
256 258 259 260 259 259 260 261 262 263 264 264 263 262 263 264 264 264 264 264 265 266 266 266 264 261 261 262 263 263 263 262 263 264 265 266 268 270 272 275 277 278
258 257 257 258 259 260 261 263 264 265 266 266 265 264 263 264 263 263 263 264 265 266 266 266 265 264 263 263 263 263 262 262 264 266 268 270 272 273 275 276 276 274
261 261 260 260 259 261 263 266 268 269 269 268 266 265 264 264 262 261 261 261 262 264 265 266 266 265 264 263 262 262 263 265 268 270 271 272 273 274 274 272 271 269
262 263 264 264 262 262 263 265 268 270 271 269 266 264 263 262 261 260 259 259 260 261 262 263 264 264 263 262 262 264 266 269 271 272 273 273 273 271 270 268 269 269
265 264 263 264 264 263 262 263 264 266 267 266 263 261 261 260 260 260 259 259 260 260 260 261 261 262 262 263 265 268 270 272 273 272 272 272 270 269 268 269 270 270
266 266 265 264 265 265 263 262 261 260 259 259 258 258 259 259 259 259 260 262 263 264 264 265 265 265 265 266 268 269 271 272 271 270 270 269 268 268 268 269 269 268
Height
5691 5692 5693 5693 5692 5692 5693 5693 5694 5694 5694 5693 5693 5693 5692 5692 5692 5692 5692 5692 5692 5692 5691 5691 5692 5692 5692 5692 5692 5692 5693 5693 5693 5694 5694 5694 5694 5694 5695 5694 5694 5694
5684 5684 5685 5685 5685 5684 5685 5685 5685 5686 5686 5685 5685 5685 5684 5684 5685 5685 5685 5684 5685 5684 5684 5684 5684 5684 5684 5684 5684 5685 5685 5686 5686 5686 5686 5687 5687 5687 5688 5687 5687 5688
5676 5676 5676 5676 5676 5676 5676 5676 5676 5677 5677 5677 5677 5676 5676 5676 5676 5677 5676 5676 5677 5677 5677 5677 5677 5677 5677 5676 5677 5677 5678 5678 5678 5678 5678 5679 5679 5679 5680 5680 5680 5680
5667 5668 5668 5667 5667 5666 5666 5667 5668 5668 5667 5667 5668 5667 5667 5667 5668 5668 5668 5668 5669 5669 5669 5670 5670 5669 5669 5669 5670 5670 5670 5670 5670 5670 5670 5671 5671 5671 5671 5671 5671 5672
5659 5659 5659 5658 5657 5657 5657 5658 5659 5658 5657 5657 5657 5657 5658 5658 5659 5659 5660 5660 5660 5660 5661 5661 5662 5662 5662 5662 5662 5663 5662 5662 5662 5662 5662 5662 5662 5662 5662 5663 5663 5663
5652 5651 5650 5649 5648 5647 5647 5648 5648 5647 5647 5647 5647 5647 5648 5649 5649 5650 5651 5651 5651 5652 5652 5653 5654 5654 5654 5654 5655 5655 5655 5654 5653 5653 5654 5654 5653 5654 5654 5654 5654 5655
5643 5642 5642 5640 5638 5636 5636 5637 5637 5637 5637 5637 5637 5638 5639 5639 5640 5641 5641 5641 5642 5643 5644 5645 5645 5646 5646 5646 5647 5647 5647 5646 5645 5645 5645 5645 5645 5646 5646 5646 5646 5646
5634 5634 5634 5631 5629 5628 5627 5628 5628 5628 5627 5627 5627 5628 5629 5629 5629 5630 5630 5631 5632 5634 5635 5636 5637 5637 5637 5637 5638 5638 5638 5638 5637 5637 5637 5637 5637 5637 5637 5637 5637 5638
5625 5625 5622 5620 5621 5621 5620 5620 5620 5619 5618 5617 5618 5618 5618 5619 5619 5619 5619 5620 5622 5624 5626 5626 5627 5627 5627 5628 5629 5629 5630 5629 5629 5628 5628 5628 5628 5628 5628 5628 5629 5629
5615 5613 5611 5612 5614 5613 5613 5612 5611 5610 5609 5608 5609 5608 5609 5610 5610 5609 5609 5611 5612 5614 5615 5615 5616 5616 5617 5618 5619 5620 5620 5620 5620 5620 5619 5619 5619 5618 5618 5619 5620 5620
5604 5602 5602 5604 5605 5604 5604 5603 5602 5601 5600 5600 5599 5599 5600 5601 5600 5600 5601 5602 5604 5604 5604 5604 5605 5606 5607 5608 5609 5610 5610 5610 5611 5611 5610 5610 5609 5609 5609 5609 5610 5610
5594 5593 5593 5594 5594 5593 5594 5594 5593 5593 5592 5592 5591 5590 5591 5591 5592 5592 5593 5594 5595 5594 5594 5595 5595 5596 5597 5598 5599 5599 5600 5600 5601 5601 5601 5601 5601 5600 5600 5600 5601 5601
5582 5581 5581 5582 5583 5583 5583 5583 5583 5584 5584 5583 5582 5582 5583 5583 5583 5583 5584 5584 5585 5585 5585 5585 5586 5586 5588 5589 5590 5589 5589 5590 5591 5591 5591 5591 5591 5591 5591 5591 5591 5592
5571 5570 5570 5571 5572 5572 5571 5571 5572 5572 5574 5573 5573 5573 5574 5574 5574 5574 5574 5574 5575 5575 5576 5576 5576 5577 5578 5579 5580 5579 5579 5579 5579 5580 5580 5581 5582 5582 5582 5582 5582 5583
5559 5558 5558 5559 5560 5560 5560 5560 5560 5561 5562 5562 5562 5563 5563 5563 5564 5564 5564 5565 5566 5566 5566 5566 5566 5568 5569 5569 5569 5568 5568 5568 5568 5569 5570 5571 5572 5572 5573 5573 5573 5573
5546 5546 5546 5546 5547 5548 5548 5549 5549 5550 5551 5552 5553 5552 5552 5552 5552 5553 5554 5555 5555 5556 5556 5556 5557 5558 5559 5559 5558 5558 5557 5557 5558 5559 5560 5560 5561 5562 5563 5564 5564 5564
5533 5533 5533 5534 5534 5535 5536 5537 5537 5538 5539 5541 5542 5542 5542 5541 5541 5542 5544 5544 5544 5544 5545 5546 5547 5548 5549 5549 5548 5547 5547 5546 5547 5548 5549 5550 5551 5552 5553 5553 5553 5553
5520 5521 5522 5522 5522 5522 5523 5524 5525 5526 5528 5529 5530 5531 5531 5530 5532 5533 5533 5533 5533 5533 5535 5536 5537 5537 5537 5537 5537 5537 5536 5536 5536 5537 5538 5540 5541 5542 5542 5542 5543 5543
5508 5509 5510 5510 5511 5511 5511 5512 5513 5514 5516 5517 5518 5518 5519 5520 5521 5522 5522 5522 5522 5523 5524 5525 5526 5526 5526 5527 5527 5527 5526 5526 5526 5528 5529 5531 5532 5532 5532 5532 5533 5533
5496 5497 5497 5498 5499 5500 5500 5501 5501 5502 5504 5505 5506 5506 5507 5509 5510 5510 5511 5511 5511 5512 5513 5513 5514 5515 5515 5516 5517 5517 5517 5517 5517 5518 5520 5521 5521 5522 5522 5522 5523 5524
5485 5486 5486 5486 5487 5488 5489 5489 5490 5491 5492 5493 5494 5495 5496 5497 5498 5498 5499 5499 5500 5500 5501 5502 5503 5504 5505 5506 5507 5507 5507 5507 5506 5507 5509 5510 5511 5511 5512 5512 5513 5513
5473 5474 5475 5475 5475 5476 5477 5478 5479 5480 5481 5481 5482 5484 5485 5486 5487 5487 5488 5488 5488 5488 5489 5491 5493 5494 5495 5496 5496 5496 5496 5495 5496 5497 5498 5499 5500 5500 5501 5501 5502 5502
5461 5462 5463 5463 5463 5464 5464 5465 5466 5468 5469 5469 5469 5471 5472 5473 5475 5475 5476 5477 5477 5478 5479 5480 5482 5483 5484 5485 5485 5485 5484 5485 5486 5486 5487 5488 5489 5489 5489 5489 5490 5490
5447 5448 5449 5450 5450 5451 5451 5452 5452 5454 5456 5456 5457 5458 5459 5460 5461 5462 5464 5465 5466 5467 5468 5470 5471 5472 5473 5473 5473 5473 5473 5475 5476 5475 5475 5476 5477 5477 5478 5478 5478 5479
5431 5433 5435 5436 5437 5437 5437 5438 5439 5440 5442 5443 5443 5444 5446 5447 5448 5450 5451 5452 5453 5455 5456 5458 5459 5460 5460 5461 5461 5461 5462 5464 5465 5464 5464 5465 5466 5466 5467 5467 5467 5469
5416 5416 5418 5421 5422 5423 5424 5425 5427 5428 5429 5430 5431 5431 5433 5434 5436 5437 5439 5440 5441 5442 5444 5445 5447 5448 5448 5449 5449 5449 5450 5453 5454 5453 5453 5454 5454 5455 5456 5456 5458 5460